Home > Weather > Saskatoon > Past weeks

Flag for Canada Past Weather in Saskatoon, Saskatchewan, Canada — Yesterday and Last 2 Weeks

Now
79 °F

Scattered clouds.


Feels Like: 79 °F
Forecast: N/A
Wind: 10 mph from Southwest

Location: Saskatoon Weather Station

Current Time: Jul 27, 2016 at 3:20:49 PM

Latest Report: Jul 27, 2016 at 2:00 PM


Visibility: 15 mi

Pressure: 30.20 "Hg

Humidity: 37%

Dew Point: 50 °F

Location of SaskatoonLocation

Past Weather in Saskatoon — Graph

°F

Saskatoon Temperature Yesterday

Maximum temperature yesterday: 77 °F (at 3:00 PM)
Minimum temperature yesterday: 48 °F (at 3:00 AM)
Average temperature yesterday: 65 °F

High & Low Weather Summary for the Past Weeks

 TemperatureHumidityPressure
High84 °F (Jul 19, 3:00 PM)100% (Jul 12, 2:00 PM)30.21 "Hg (Jul 12, 2:00 PM)
Low48 °F (Jul 15, 4:00 AM)30% (Jul 25, 4:00 PM)29.62 "Hg (Jul 12, 2:46 PM)
Average67 °F71%29.98 "Hg
* Reported Jul 12 2:00 PM — Jul 27 2:00 PM, Saskatoon, Weather by CustomWeather, © 2016

Note: Actual official high and low records may vary slightly from our data, if they occured in-between our weather recording intervals... More about our weather records

Advertising

Saskatoon Weather History for the Previous 24 Hours

Scroll right to see more
 ConditionsComfort  
Time TempWeatherWind HumidityBarometerVisibility
2:00 PM
Wed, Jul 27
79 °FScattered clouds.10 mph37%30.20 "Hg15 mi
1:00 PM77 °FScattered clouds.2 mph42%30.20 "Hg15 mi
12:00 PM75 °FPassing clouds.3 mph41%30.21 "Hg15 mi
11:00 AM73 °FPassing clouds.6 mph47%30.21 "Hg15 mi
10:00 AM70 °FPassing clouds.3 mph57%30.21 "Hg15 mi
9:00 AM68 °FScattered clouds.6 mph56%30.21 "Hg15 mi
8:00 AM64 °FPartly sunny.2 mph68%30.21 "Hg15 mi
7:00 AM59 °FPartly sunny.No wind88%30.21 "Hg15 mi
6:00 AM50 °FScattered clouds.3 mph100%30.21 "Hg15 mi
5:50 AM50 °FScattered clouds.6 mph100%30.20 "Hg15 mi
5:00 AM54 °FPassing clouds.2 mph94%30.18 "Hg15 mi
4:00 AM59 °FPassing clouds.3 mph82%30.17 "Hg15 mi
3:00 AM59 °FPassing clouds.7 mph82%30.16 "Hg15 mi
2:00 AM57 °FPassing clouds.2 mph82%30.17 "Hg15 mi
1:00 AM61 °FPassing clouds.7 mph77%30.16 "Hg15 mi
12:00 AM63 °FClear.7 mph73%30.16 "Hg15 mi
11:00 PM
Tue, Jul 26
63 °FPassing clouds.8 mph68%30.16 "Hg15 mi
10:00 PM64 °FPassing clouds.7 mph60%30.15 "Hg15 mi
9:00 PM68 °FScattered clouds.9 mph53%30.13 "Hg15 mi
8:00 PM73 °FPassing clouds.7 mph41%30.14 "Hg15 mi
7:00 PM75 °FScattered clouds.10 mph39%30.14 "Hg15 mi
6:00 PM77 °FScattered clouds.7 mph36%30.13 "Hg15 mi
5:00 PM77 °FBroken clouds.3 mph30%30.15 "Hg15 mi
4:00 PM77 °FBroken clouds.8 mph30%30.15 "Hg15 mi
3:00 PM77 °FCloudy.7 mph32%30.16 "Hg15 mi
Weather by CustomWeather, © 2016

See weather overviewHow to use our weather pages